Oregon State Current Weather Observations

 
 ASUS46 KPQR 170510
 RWROR 
 
 OREGON REGIONAL WEATHER ROUNDUP
 NATIONAL WEATHER SERVICE PORTLAND OR
 900 PM PST SAT FEB 16 2019
 
 NOTE: "FAIR" INDICATES FEW OR NO CLOUDS BELOW 12,000 FEET WITH
 NO SIGNIFICANT WEATHER AND/OR OBSTRUCTIONS TO VISIBILITY.
 
 ORZ001>013-170600-
 NORTHWEST OREGON
 
   
 CITY           SKY/WX    TMP DP  RH WIND       PRES   REMARKS
 ASTORIA        FAIR      34  33  96 CALM      29.94R                  
 TILLAMOOK      MIX PCPN  36  36 100 CALM      29.98R                  
 NEWPORT        MOCLDY    36  34  93 SE5       30.01F                  
 PORTLAND       CLOUDY    38  34  85 NE3       29.96R                  
 VANCOUVER WA   CLOUDY    39  35  86 CALM      29.95R                  
 SCAPPOOSE      CLOUDY    37  34  89 CALM      29.95R                  
 HILLSBORO      FAIR      36  33  89 N3        29.94R                  
 AURORA         CLOUDY    38  36  92 SW6       29.96R                  
 MCMINNVILLE    CLOUDY    37  34  89 SW9       29.95R                  
 SALEM          MOCLDY    38  35  89 S6        29.96R                  
 CORVALLIS      LGT RAIN  37  36  93 W7        29.99R                  
 EUGENE         LGT RAIN  37  34  89 S8        29.98F                  
 
ORZ021-028-170600- SOUTHWEST OREGON CITY SKY/WX TMP DP RH WIND PRES REMARKS NORTH BEND LGT RAIN 39 37 93 SE6 30.04R BROOKINGS LGT RAIN 38 36 92 CALM 30.05S ROSEBURG FAIR 35 33 92 S3 30.01F SEXTON SUMMIT MOCLDY 25 24 96 VRB5 29.88S GRANTS PASS LGT RAIN 36 34 93 CALM 30.03 MEDFORD CLOUDY 37 31 78 SW7 29.98F
ORZ014>016-041-170600- COLUMBIA GORGE CITY SKY/WX TMP DP RH WIND PRES REMARKS TROUTDALE CLOUDY 38 35 89 NE6 29.96R HOOD RIVER FAIR 34 32 93 CALM 29.90R THE DALLES FAIR 30 28 92 CALM 29.91R FOG
ORZ029>031-041-044-049-050-061>064-502-503-505>511-170600- EASTERN OREGON CITY SKY/WX TMP DP RH WIND PRES REMARKS MADRAS NOT AVBL REDMOND MOCLDY 31 22 69 SW3 29.83R BEND FAIR 30 19 64 SW6 29.82S PRINEVILLE CLOUDY 30 23 74 W6 29.83R KLAMATH FALLS CLOUDY 27 22 81 W10 29.87S WCI 17 LAKEVIEW CLOUDY 24 17 74 SW6 29.84S HERMISTON CLOUDY 32 29 88 W3 29.89R FOG PENDLETON CLOUDY 30 28 92 CALM 29.84R JOHN DAY CLOUDY 30 29 95 W5 29.80 MEACHAM LGT SNOW 29 25 85 CALM 29.74S FOG LA GRANDE FLURRIES 30 28 92 SW5 29.80S BAKER CITY LGT SNOW 30 27 88 W3 29.78R FOG BURNS CLOUDY 27 20 75 SW6 29.79S ROME N/A 30 25 81 SW8 29.80R ONTARIO MOCLDY 36 33 89 NW5 29.83R

Data from: http://www.wrh.noaa.gov/sew/get.php?pil=RWR&sid=OR&version=0&format=printer

Current Observations

Current Weather Conditions by Major Highway
Washington State Current Weather Observations   …  Oregon State Current Weather Observation



48 Hour Forecast


Seattle  …  Vancouver  …  Portland
————————————————————————————————————————
Bend  …  Spokane  …  Richland  …  Pendleton  …  Blue Mountains I-84  …  Yakima
————————————————————————————————————————
Goldendale, Washington Higher Elevations  …  Dallesport Airport - Goldendale  …  Bingen - White Salmon - Hood River  …  Index





Top of Page